Погода в Грачевке

Россия / Оренбургская область     52°55′14″N   52°52′04″E
темп.,
°C
ветер,
м/с
пор.,
м/с
влажн.,
%
обл.,
%
осадки,
мм/ч
давл.,
гПа
погр.,
м
7 мая, пт
пт723:00+12ююз116220 0.0 101910
02:00+11ююв116819 0.0 101910
05:00+10юв2273100 0.0 102021
08:00+12юв2470100 0.0 1020149
11:00+17ю454958 0.0 10201154
14:00+19ю564199 0.0 10192384
17:00+18юв4652100 0.0 1018670
20:00+15юв3862100 0.0 1017177
8 мая, сб
сб823:00+14ююв2259100 0.0 101839
02:00+14вюв226199 0.0 101822
05:00+12юз3573100 0.4 1018108
08:00+13юв2375100 0.3 101858
11:00+17ююв345791 0.8 1018623
14:00+19ююз344498 0.0 10182238
17:00+17юз1359100 0.0 1017218
20:00+17в11556 0.0 101711
9 мая, вс
вс923:00+13в2265100 0.0 101714
02:00+14ююв226599 0.0 101729
05:00+12ююв116718 0.0 101710
08:00+15юв23631 0.0 1017127
11:00+20ююв3444100 0.0 10161259
14:00+22ююв333784 0.0 10162216
17:00+22ю2336100 0.0 10162315
20:00+19ююз225121 0.0 101614
10 мая, пн
пн1023:00+16вюв2252100 0.0 101714
02:00+15юв2256100 0.0 101715
05:00+15вюв3356100 0.0 101860
08:00+16юв2561100 0.0 1019158
11:00+21ю2245100 0.0 1020707
14:00+24ююз124094 0.0 10201643
17:00+24зюз1337100 0.0 10202296
20:00+15с81285100 0.1 1022369
11 мая, вт
вт1123:00+12ссв61286100 0.9 1025401
02:00+11ссв51184100 0.0 1026369
05:00+8ссв6118998 0.0 1027338
08:00+10св797921 0.0 1029429
11:00+15св675953 0.0 1029784
14:00+18св66434 0.0 10291187
17:00+19св66375 0.0 10281354
20:00+16всв47525 0.0 1029187